SHT8K EGLL-EGPH

Flight info

Callsign SHT8K
Flight time 1h 1m
Altitude 32000
Route ULTIB T420 TNT UN57 POL UN601 RIBEL DCT INPIP
Aircraft A319/M-SDE3FGHIRWY/LB1

Departure

Time 2026-04-20 17:26
Airport London Heathrow Airport (EGLL)

Arrival

Time 2026-04-20 18:27
Airport Edinburgh Airport (EGPH)
Time Latitude Longitude Altitude Speed Heading
2026-04-20 16:55 51.47404 -0.48893 87 ft 0 kts 179°
2026-04-20 17:16 51.47412 -0.48894 90 ft 3 kts 179°
2026-04-20 17:16 51.47431 -0.48894 87 ft 3 kts 179°
2026-04-20 17:17 51.47450 -0.48894 87 ft 3 kts 174°
2026-04-20 17:17 51.47468 -0.48904 88 ft 3 kts 148°
2026-04-20 17:17 51.47483 -0.48919 90 ft 2 kts 145°
2026-04-20 17:17 51.47487 -0.48923 90 ft 3 kts 137°
2026-04-20 17:18 51.47494 -0.48934 90 ft 0 kts 114°
2026-04-20 17:20 51.47488 -0.48903 88 ft 6 kts 99°
2026-04-20 17:20 51.47486 -0.48802 88 ft 12 kts 90°
2026-04-20 17:21 51.47487 -0.48653 87 ft 13 kts 89°
2026-04-20 17:21 51.47488 -0.48511 88 ft 12 kts 89°
2026-04-20 17:21 51.47478 -0.48389 90 ft 12 kts 126°
2026-04-20 17:21 51.47381 -0.48362 87 ft 18 kts 180°
2026-04-20 17:22 51.47247 -0.48359 87 ft 21 kts 180°
2026-04-20 17:22 51.47112 -0.48359 87 ft 13 kts 179°
2026-04-20 17:22 51.46999 -0.48358 87 ft 19 kts 179°
2026-04-20 17:22 51.46871 -0.48357 87 ft 16 kts 180°
2026-04-20 17:23 51.46825 -0.48357 87 ft 0 kts 179°
2026-04-20 17:23 51.46796 -0.48357 88 ft 7 kts 180°
2026-04-20 17:24 51.46747 -0.48303 88 ft 12 kts 109°
2026-04-20 17:24 51.46691 -0.48219 88 ft 14 kts 177°
2026-04-20 17:24 51.46584 -0.48220 87 ft 16 kts 180°
2026-04-20 17:24 51.46494 -0.48204 90 ft 12 kts 145°
2026-04-20 17:25 51.46480 -0.48117 87 ft 14 kts 92°
2026-04-20 17:25 51.46484 -0.47729 88 ft 66 kts 89°
2026-04-20 17:25 51.46483 -0.46620 89 ft 130 kts 89°
2026-04-20 17:25 51.46477 -0.44964 475 ft 147 kts 90°
2026-04-20 17:26 51.46449 -0.43397 1311 ft 140 kts 84°
2026-04-20 17:26 51.46530 -0.41760 1772 ft 157 kts 71°
2026-04-20 17:26 51.47063 -0.40114 2173 ft 179 kts 49°
2026-04-20 17:26 51.47939 -0.38502 2728 ft 203 kts 48°
2026-04-20 17:27 51.48942 -0.36612 2976 ft 239 kts 49°
2026-04-20 17:27 51.50026 -0.34540 3004 ft 244 kts 49°
2026-04-20 17:27 51.51117 -0.32440 3005 ft 245 kts 49°
2026-04-20 17:27 51.52156 -0.30276 3005 ft 245 kts 59°
2026-04-20 17:28 51.52790 -0.27729 3012 ft 247 kts 70°
2026-04-20 17:28 51.53403 -0.25154 3003 ft 246 kts 59°
2026-04-20 17:28 51.54585 -0.23194 3270 ft 249 kts 30°
2026-04-20 17:28 51.56229 -0.22352 4452 ft 250 kts
2026-04-20 17:29 51.57963 -0.22652 5610 ft 255 kts 345°
2026-04-20 17:29 51.59689 -0.23406 6812 ft 258 kts 348°
2026-04-20 17:29 51.61448 -0.24051 7876 ft 262 kts 343°
2026-04-20 17:29 51.63130 -0.25237 8926 ft 266 kts 331°
2026-04-20 17:30 51.64758 -0.26701 9986 ft 270 kts 330°
2026-04-20 17:30 51.66410 -0.28257 10733 ft 285 kts 329°
2026-04-20 17:30 51.68179 -0.29942 11212 ft 305 kts 330°
2026-04-20 17:30 51.70217 -0.31025 11973 ft 315 kts 352°
2026-04-20 17:31 51.72387 -0.31245 12880 ft 318 kts 356°
2026-04-20 17:31 51.74613 -0.31383 13784 ft 322 kts 356°
2026-04-20 17:31 51.76871 -0.31508 14352 ft 325 kts 356°
2026-04-20 17:31 51.79147 -0.31626 15106 ft 329 kts 356°
2026-04-20 17:32 51.81441 -0.31732 15857 ft 331 kts 356°
2026-04-20 17:32 51.83757 -0.31827 16659 ft 334 kts 356°
2026-04-20 17:32 51.86094 -0.31912 17444 ft 338 kts 356°
2026-04-20 17:32 51.88458 -0.31987 18241 ft 342 kts 356°
2026-04-20 17:33 51.90850 -0.32050 18969 ft 345 kts 356°
2026-04-20 17:33 51.93259 -0.32090 19671 ft 348 kts 356°
2026-04-20 17:33 51.95694 -0.32100 20382 ft 351 kts 356°
2026-04-20 17:33 51.98145 -0.32077 21092 ft 354 kts 356°
2026-04-20 17:34 52.00619 -0.32025 21783 ft 357 kts 356°
2026-04-20 17:34 52.03111 -0.31947 22467 ft 360 kts 356°
2026-04-20 17:34 52.05629 -0.31846 23141 ft 363 kts 356°
2026-04-20 17:34 52.08167 -0.31724 23814 ft 367 kts 356°
2026-04-20 17:35 52.10725 -0.31586 24367 ft 370 kts 356°
2026-04-20 17:35 52.13305 -0.31442 24913 ft 372 kts 356°
2026-04-20 17:35 52.15907 -0.31295 25452 ft 375 kts 356°
2026-04-20 17:35 52.18495 -0.31519 25963 ft 370 kts 343°
2026-04-20 17:36 52.20885 -0.32934 26480 ft 364 kts 327°
2026-04-20 17:36 52.23047 -0.35099 27002 ft 366 kts 324°
2026-04-20 17:36 52.25203 -0.37327 27517 ft 368 kts 324°
2026-04-20 17:36 52.27343 -0.39558 28020 ft 371 kts 324°
2026-04-20 17:37 52.29530 -0.41839 28527 ft 374 kts 324°
2026-04-20 17:37 52.31734 -0.44135 29027 ft 377 kts 324°
2026-04-20 17:37 52.33956 -0.46445 29523 ft 380 kts 324°
2026-04-20 17:37 52.36202 -0.48764 29997 ft 383 kts 325°
2026-04-20 17:38 52.38464 -0.51111 30447 ft 386 kts 324°
2026-04-20 17:38 52.40740 -0.53484 30809 ft 390 kts 324°
2026-04-20 17:38 52.43039 -0.55887 31148 ft 393 kts 324°
2026-04-20 17:38 52.45355 -0.58314 31474 ft 397 kts 324°
2026-04-20 17:39 52.47691 -0.60765 31800 ft 400 kts 324°
2026-04-20 17:39 52.50048 -0.63236 32111 ft 404 kts 325°
2026-04-20 17:39 52.52423 -0.65724 32273 ft 404 kts 325°
2026-04-20 17:39 52.54751 -0.68161 32301 ft 390 kts 325°
2026-04-20 17:40 52.56998 -0.70511 32296 ft 377 kts 324°
2026-04-20 17:40 52.61362 -0.75093 32297 ft 369 kts 324°
2026-04-20 17:41 52.65651 -0.79620 32297 ft 368 kts 324°
2026-04-20 17:41 52.69966 -0.84197 32297 ft 369 kts 324°
2026-04-20 17:42 52.74288 -0.88785 32297 ft 370 kts 324°
2026-04-20 17:42 52.78617 -0.93382 32294 ft 370 kts 325°
2026-04-20 17:43 52.82948 -0.97996 32292 ft 370 kts 325°
2026-04-20 17:43 52.87277 -1.02624 32291 ft 371 kts 325°
2026-04-20 17:44 52.91614 -1.07276 32291 ft 372 kts 325°
2026-04-20 17:44 52.95959 -1.11944 32288 ft 372 kts 325°
2026-04-20 17:45 53.00309 -1.16615 32287 ft 373 kts 325°
2026-04-20 17:45 53.04662 -1.21308 32287 ft 373 kts 325°
2026-04-20 17:46 53.08992 -1.25991 32285 ft 374 kts 325°
2026-04-20 17:46 53.13353 -1.30715 32286 ft 374 kts 325°
2026-04-20 17:47 53.17723 -1.35454 32293 ft 375 kts 325°
2026-04-20 17:47 53.22093 -1.40215 32297 ft 376 kts 325°
2026-04-20 17:48 53.26472 -1.45007 32296 ft 376 kts 325°
2026-04-20 17:48 53.30855 -1.49809 32302 ft 377 kts 325°
2026-04-20 17:49 53.35241 -1.54622 32303 ft 377 kts 325°
2026-04-20 17:49 53.39638 -1.59451 32305 ft 378 kts 325°
2026-04-20 17:50 53.44038 -1.64305 32304 ft 379 kts 325°
2026-04-20 17:50 53.48438 -1.69183 32309 ft 380 kts 325°
2026-04-20 17:51 53.52850 -1.74061 32308 ft 380 kts 325°
2026-04-20 17:51 53.57269 -1.78970 32308 ft 381 kts 325°
2026-04-20 17:52 53.61690 -1.83902 32305 ft 381 kts 325°
2026-04-20 17:52 53.66115 -1.88853 32306 ft 382 kts 325°
2026-04-20 17:53 53.70550 -1.93814 32308 ft 383 kts 325°
2026-04-20 17:53 53.74963 -1.98764 32313 ft 384 kts 325°
2026-04-20 17:54 53.79421 -2.03779 32302 ft 386 kts 325°
2026-04-20 17:54 53.83889 -2.08826 32302 ft 387 kts 325°
2026-04-20 17:55 53.88373 -2.13896 32310 ft 388 kts 325°
2026-04-20 17:55 53.92859 -2.18985 32307 ft 388 kts 325°
2026-04-20 17:56 53.97351 -2.24095 32311 ft 389 kts 325°
2026-04-20 17:56 54.01902 -2.29063 32317 ft 390 kts 332°
2026-04-20 17:57 54.06914 -2.32626 32319 ft 391 kts 337°
2026-04-20 17:57 54.11956 -2.36102 32315 ft 391 kts 336°
2026-04-20 17:58 54.17001 -2.39594 32319 ft 391 kts 336°
2026-04-20 17:58 54.22016 -2.43083 32325 ft 392 kts 337°
2026-04-20 17:59 54.27066 -2.46605 32323 ft 392 kts 336°
2026-04-20 17:59 54.32117 -2.50141 32324 ft 392 kts 336°
2026-04-20 18:00 54.37170 -2.53689 32324 ft 393 kts 337°
2026-04-20 18:00 54.42225 -2.57238 32321 ft 393 kts 337°
2026-04-20 18:01 54.47284 -2.60803 32323 ft 393 kts 336°
2026-04-20 18:01 54.52338 -2.64385 32215 ft 394 kts 336°
2026-04-20 18:01 54.54866 -2.66177 31826 ft 391 kts 336°
2026-04-20 18:02 54.57377 -2.67957 31376 ft 390 kts 336°
2026-04-20 18:02 54.59878 -2.69729 30942 ft 387 kts 336°
2026-04-20 18:02 54.62365 -2.71490 30514 ft 385 kts 336°
2026-04-20 18:02 54.64802 -2.73219 30049 ft 383 kts 336°
2026-04-20 18:03 54.67283 -2.74988 29630 ft 378 kts 336°
2026-04-20 18:03 54.69667 -2.76693 29228 ft 375 kts 336°
2026-04-20 18:03 54.72065 -2.78410 28844 ft 371 kts 336°
2026-04-20 18:03 54.74437 -2.80109 28457 ft 368 kts 336°
2026-04-20 18:04 54.76793 -2.81802 28072 ft 365 kts 336°
2026-04-20 18:04 54.79128 -2.83478 27695 ft 361 kts 337°
2026-04-20 18:04 54.81443 -2.85137 27327 ft 358 kts 337°
2026-04-20 18:04 54.83732 -2.86777 26958 ft 354 kts 337°
2026-04-20 18:05 54.88238 -2.90018 26227 ft 347 kts 337°
2026-04-20 18:05 54.90506 -2.91655 25705 ft 357 kts 337°
2026-04-20 18:05 54.92812 -2.93323 25200 ft 359 kts 337°
2026-04-20 18:06 54.95118 -2.94996 24694 ft 359 kts 337°
2026-04-20 18:06 54.97426 -2.96673 24191 ft 360 kts 337°
2026-04-20 18:06 54.99735 -2.98353 23648 ft 360 kts 337°
2026-04-20 18:06 55.02041 -3.00029 23121 ft 358 kts 337°
2026-04-20 18:07 55.04330 -3.01691 22628 ft 355 kts 338°
2026-04-20 18:07 55.06600 -3.03342 22135 ft 352 kts 338°
2026-04-20 18:07 55.08856 -3.04984 21644 ft 350 kts 338°
2026-04-20 18:07 55.11067 -3.06598 21284 ft 345 kts 338°
2026-04-20 18:08 55.13262 -3.08206 20891 ft 339 kts 338°
2026-04-20 18:08 55.15428 -3.09792 20238 ft 336 kts 338°
2026-04-20 18:08 55.17586 -3.11371 19720 ft 336 kts 339°
2026-04-20 18:08 55.19750 -3.12954 19253 ft 337 kts 339°
2026-04-20 18:09 55.21910 -3.14533 18788 ft 337 kts 339°
2026-04-20 18:09 55.24047 -3.16103 18263 ft 332 kts 339°
2026-04-20 18:09 55.26162 -3.17666 17698 ft 327 kts 339°
2026-04-20 18:09 55.28250 -3.19210 17219 ft 324 kts 339°
2026-04-20 18:10 55.30321 -3.20739 16741 ft 322 kts 339°
2026-04-20 18:10 55.32386 -3.22265 16271 ft 321 kts 339°
2026-04-20 18:10 55.34435 -3.23779 15795 ft 319 kts 339°
2026-04-20 18:10 55.36475 -3.25285 15329 ft 317 kts 339°
2026-04-20 18:11 55.38503 -3.26785 14863 ft 316 kts 339°
2026-04-20 18:11 55.40524 -3.28283 14394 ft 315 kts 339°
2026-04-20 18:11 55.42537 -3.29775 13902 ft 314 kts 339°
2026-04-20 18:11 55.44523 -3.31252 13428 ft 312 kts 339°
2026-04-20 18:12 55.46513 -3.32737 12977 ft 309 kts 339°
2026-04-20 18:12 55.48481 -3.34207 12525 ft 306 kts 338°
2026-04-20 18:12 55.50352 -3.35966 12068 ft 305 kts 326°
2026-04-20 18:12 55.52007 -3.38282 11622 ft 302 kts 321°
2026-04-20 18:13 55.53627 -3.40626 11180 ft 300 kts 321°
2026-04-20 18:13 55.55235 -3.42952 10737 ft 297 kts 321°
2026-04-20 18:13 55.56821 -3.45244 10299 ft 293 kts 321°
2026-04-20 18:13 55.58389 -3.47510 9850 ft 289 kts 321°
2026-04-20 18:14 55.59897 -3.49693 9758 ft 271 kts 321°
2026-04-20 18:14 55.61305 -3.51732 9686 ft 252 kts 321°
2026-04-20 18:14 55.62617 -3.53634 9604 ft 238 kts 321°
2026-04-20 18:14 55.63871 -3.55453 9505 ft 228 kts 321°
2026-04-20 18:15 55.64664 -3.56633 9380 ft 223 kts 319°
2026-04-20 18:15 55.65828 -3.58473 8946 ft 225 kts 318°
2026-04-20 18:15 55.66979 -3.60340 8567 ft 223 kts 318°
2026-04-20 18:15 55.68479 -3.62786 8079 ft 220 kts 318°
2026-04-20 18:16 55.69238 -3.64017 7851 ft 218 kts 320°
2026-04-20 18:16 55.70382 -3.65749 7538 ft 212 kts 322°
2026-04-20 18:16 55.71510 -3.67392 7024 ft 211 kts 322°
2026-04-20 18:16 55.72659 -3.69047 6519 ft 213 kts 323°
2026-04-20 18:17 55.73800 -3.70691 6106 ft 209 kts 323°
2026-04-20 18:17 55.74898 -3.72278 5766 ft 204 kts 323°
2026-04-20 18:17 55.75978 -3.73923 5427 ft 200 kts 319°
2026-04-20 18:17 55.76946 -3.75605 5152 ft 194 kts 317°
2026-04-20 18:18 55.77852 -3.77238 5100 ft 177 kts 317°
2026-04-20 18:18 55.78728 -3.78615 5027 ft 159 kts 336°
2026-04-20 18:18 55.79736 -3.79021 4990 ft 145 kts
2026-04-20 18:18 55.80660 -3.78496 4964 ft 137 kts 38°
2026-04-20 18:19 55.81295 -3.77302 4937 ft 132 kts 63°
2026-04-20 18:19 55.81775 -3.75903 4915 ft 132 kts 61°
2026-04-20 18:19 55.82239 -3.74562 4821 ft 123 kts 62°
2026-04-20 18:19 55.82681 -3.73282 4684 ft 120 kts 62°
2026-04-20 18:20 55.83116 -3.72019 4534 ft 120 kts 62°
2026-04-20 18:20 55.83549 -3.70762 4378 ft 119 kts 62°
2026-04-20 18:20 55.83979 -3.69510 4217 ft 119 kts 62°
2026-04-20 18:20 55.84411 -3.68255 4058 ft 118 kts 62°
2026-04-20 18:21 55.84835 -3.67022 3899 ft 118 kts 62°
2026-04-20 18:21 55.85268 -3.65760 3731 ft 118 kts 62°
2026-04-20 18:21 55.85695 -3.64517 3571 ft 117 kts 62°
2026-04-20 18:21 55.86114 -3.63294 3414 ft 117 kts 62°
2026-04-20 18:22 55.86537 -3.62060 3253 ft 116 kts 62°
2026-04-20 18:22 55.86959 -3.60829 3086 ft 116 kts 62°
2026-04-20 18:22 55.87381 -3.59597 2929 ft 116 kts 62°
2026-04-20 18:22 55.87799 -3.58377 2772 ft 115 kts 62°
2026-04-20 18:23 55.88216 -3.57157 2609 ft 115 kts 62°
2026-04-20 18:23 55.88633 -3.55940 2447 ft 115 kts 62°
2026-04-20 18:23 55.89048 -3.54726 2293 ft 114 kts 62°
2026-04-20 18:23 55.89460 -3.53520 2136 ft 114 kts 63°
2026-04-20 18:24 55.89873 -3.52310 1971 ft 114 kts 62°
2026-04-20 18:24 55.90283 -3.51109 1806 ft 113 kts 62°
2026-04-20 18:24 55.90691 -3.49913 1652 ft 113 kts 62°
2026-04-20 18:24 55.91113 -3.48695 1513 ft 117 kts 62°
2026-04-20 18:25 55.91541 -3.47443 1383 ft 120 kts 63°
2026-04-20 18:25 55.91986 -3.46168 1218 ft 122 kts 62°
2026-04-20 18:25 55.92418 -3.44874 994 ft 121 kts 62°
2026-04-20 18:25 55.92837 -3.43601 808 ft 118 kts 60°
2026-04-20 18:26 55.93248 -3.42381 635 ft 112 kts 60°
2026-04-20 18:26 55.93665 -3.41218 424 ft 111 kts 59°
2026-04-20 18:26 55.94051 -3.40070 290 ft 107 kts 60°
2026-04-20 18:26 55.94433 -3.38938 154 ft 108 kts 61°
2026-04-20 18:27 55.94789 -3.37884 109 ft 62 kts 59°
2026-04-20 18:27 55.94875 -3.37622 109 ft 25 kts 60°
2026-04-20 18:27 55.95007 -3.37218 106 ft 46 kts 59°
2026-04-20 18:27 55.95184 -3.36703 109 ft 45 kts 58°
2026-04-20 18:28 55.95216 -3.36375 107 ft 22 kts 144°
2026-04-20 18:28 55.95170 -3.36324 107 ft 0 kts 150°
2026-04-20 18:28 55.95165 -3.36319 107 ft 5 kts 150°
2026-04-20 18:28 55.95112 -3.36355 107 ft 11 kts 230°
2026-04-20 18:29 55.95052 -3.36381 107 ft 5 kts 162°
2026-04-20 18:29 55.95012 -3.36403 107 ft 8 kts 236°
2026-04-20 18:29 55.94978 -3.36486 107 ft 8 kts 209°
2026-04-20 18:29 55.94936 -3.36451 106 ft 7 kts 142°
2026-04-20 18:30 55.94917 -3.36429 107 ft 1 kts 148°